Regional Weather Roundup
Issued by NWS

Home | Current Version | Previous Version | Graphics & Text | Print | Product List | Glossary On
Versions: 1 2 3 4 5 6 7 8 9 10 11 12 13 14 15 16 17 18 19 20 21 22 23 24 25 26 27 28 29 30 31 32 33 34 35 36 37 38 39 40 41 42 43 44 45 46 47 48 49 50
000
ASUS43 KLSX 301207
RWRMO

WEATHER SUMMARY FOR MISSOURI
NATIONAL WEATHER SERVICE SPRINGFIELD MO
700 AM CDT WED JUL 30 2014

NOTE: "FAIR" INDICATES FEW OR NO CLOUDS BELOW 12,000 FEET WITH NO
       SIGNIFICANT WEATHER AND/OR OBSTRUCTIONS TO VISIBILITY.
       CURRENT SKY AND/OR WEATHER CONDITIONS ARE NOT AVAILABLE FOR
       CHILLICOTHE AND FARMINGTON.

MOZ001>031-035>038-043-044-053-054-301300-
...NORTHERN AND WESTERN MISSOURI...

CITY           SKY/WX    TMP DP  RH WIND       PRES   REMARKS
KANSAS CTY INT CLOUDY    64  59  83 NE3       30.11S
6HR MIN TEMP:  62; 6HR MAX TEMP:  68;

KANSAS C DTWN  CLOUDY    68  59  73 CALM      30.09S
6HR MIN TEMP:  68; 6HR MAX TEMP:  72;

LEE`S SUMMIT   CLOUDY    66  59  78 NE5       30.10F
6HR MIN TEMP:  63; 6HR MAX TEMP:  70;

ST JOSEPH      CLOUDY    61  60  97 N5        30.11S
6HR MIN TEMP:  58; 6HR MAX TEMP:  61;

CHILLICOTHE      N/A     59  56  89 CALM      30.12S
6HR MIN TEMP:  57; 6HR MAX TEMP:  62;

KIRKSVILLE     CLEAR     57  56  96 CALM      30.11S
6HR MIN TEMP:  54; 6HR MAX TEMP:  63;


$$
MOZ066>068-077>081-088>096-101>105-301300-
...SOUTHWEST MISSOURI...

CITY           SKY/WX    TMP DP  RH WIND       PRES   REMARKS
SPRINGFIELD    CLOUDY    68  60  75 S5        30.09S
6HR MIN TEMP:  67; 6HR MAX TEMP:  73; 6HR PCP: TRACE;

JOPLIN         LGT RAIN  67  64  90 VRB5      30.10R FOG
6HR MIN TEMP:  66; 6HR MAX TEMP:  70; 6HR PCP:  0.03;


$$
MOZ032>034-039>042-045>050-055>058-069>072-301300-
...CENTRAL MISSOURI...

CITY           SKY/WX    TMP DP  RH WIND       PRES   REMARKS
COLUMBIA       MOCLDY    63  59  87 CALM      30.10R
6HR MIN TEMP:  61; 6HR MAX TEMP:  68;

JEFFERSON CITY MOCLDY    60  57  89 CALM      30.09R
6HR MIN TEMP:  58; 6HR MAX TEMP:  64;

ROLLA          CLOUDY    62  57  83 CALM      30.08S
6HR MIN TEMP:  58; 6HR MAX TEMP:  68;

SEDALIA        CLOUDY    63  58  83 CALM      30.10S
6HR MIN TEMP:  59; 6HR MAX TEMP:  67;

OSAGE BEACH    CLOUDY    59  55  88 CALM      30.09S

$$
MOZ051-052-059>065-301300-
...EAST CENTRAL MISSOURI...

CITY           SKY/WX    TMP DP  RH WIND       PRES   REMARKS
ST LOUIS INTL  MOCLDY    67  58  72 CALM      30.09S
6HR MIN TEMP:  64; 6HR MAX TEMP:  69;

SPIRIT OF STL  PTCLDY    60  58  92 CALM      30.08R
6HR MIN TEMP:  56; 6HR MAX TEMP:  63;

ST CHARLES     PTCLDY    58  57  97 CALM      30.08R
6HR MIN TEMP:  54; 6HR MAX TEMP:  59;


$$
MOZ072>076-082>087-097>100-106>115-301300-
...SOUTH CENTRAL AND SOUTHEAST MISSOURI...

CITY           SKY/WX    TMP DP  RH WIND       PRES   REMARKS
CAPE GIRARDEAU CLOUDY    62  59  90 E3        30.10S
6HR MIN TEMP:  57; 6HR MAX TEMP:  62;

FARMINGTON     CLOUDY    61  55  82 CALM      30.13R
6HR MIN TEMP:  57; 6HR MAX TEMP:  63;

POPLAR BLUFF   MOCLDY    61  57  87 CALM      30.09S
6HR MIN TEMP:  59; 6HR MAX TEMP:  61;

WEST PLAINS    PTCLDY    59  56  89 CALM      30.11S
6HR MIN TEMP:  58; 6HR MAX TEMP:  66;


$$



USA.gov is the U.S. government's official web portal to all federal, state and local government web resources and services.